Starlink 6030

operational
NORAD ID: 56107 Int'l Des: 2023-046 Owner: SPXS Country: US Constellation: starlink
LEOCIRCULAR

Starlink 6030について

説明を読み込み中...

リアルタイム位置

3D地球を読み込み中...

次回通過

高度履歴

Altitude vs Time

uPlot chart will show altitude changes over time

軌道要素

1 56107U 23046Q 25258.64838644 .00001686 00000-0 13977-3 0 9990
2 56107 43.0064 29.8628 0001036 266.7679 93.3045 15.02549732135737
Epoch: Sep 15, 2025 • Age: 18 hours

現在のステータス

高度 559.1 km
速度 7.59 km/s
衛星直下点 23.25°N, 36.59°E
打ち上げ日 Mar 29, 2023
運用期間 2.4 years
タイプ internet

技術仕様

分類 Payload
質量 305.00 kg
乾燥質量 290.00 kg
総質量 305.00 kg
長さ 0.20 m
直径 2.80 m
スパン 9.00 m
形状 Box + pan
製造者 SPXS
バスタイプ Starlink
フェーズステータス In Orbit
所有者/国 SPXS/US

大規模コンステレーション

Loading constellations...